EW4338 Weather Reports


Display with metric or nautical units.
time (UTC)temp
F
wind
direction
speed
MPH
gust
MPH
rain 1hr
in
rain 24hr
in
rain mn
in
humidity
%
barometer
mb
20210618082541 73 145 0.0 8.0 0.00 0.00 0.00 23 1010.5
20210618082034 74 135 0.0 8.0 0.00 0.00 0.00 22 1010.5
20210618081602 74 352 0.0 8.0 0.00 0.00 0.00 22 1010.5
20210618081033 74 270 0.0 1.0 0.00 0.00 0.00 22 1010.6
20210618080535 75 358 0.0 14.0 0.00 0.00 0.00 21 1010.6
20210618080035 75 360 2.0 14.0 0.00 0.00 0.00 21 1010.6
20210618075532 74 357 0.0 3.0 0.00 0.00 0.00 22 1010.7
20210618075036 75 351 0.0 4.0 0.00 0.00 0.00 22 1010.7
20210618074538 75 359 0.0 7.0 0.00 0.00 0.00 22 1010.6
20210618074030 75 356 1.0 10.0 0.00 0.00 0.00 22 1010.6
20210618073531 74 270 2.0 10.0 0.00 0.00 0.00 23 1010.5
20210618073049 74 360 3.0 10.0 0.00 0.00 0.00 24 1010.5
20210618072537 74 356 0.0 3.0 0.00 0.00 0.00 24 1010.6
20210618072026 74 12 0.0 10.0 0.00 0.00 0.00 24 1010.7
20210618071535 75 352 1.0 10.0 0.00 0.00 0.00 24 1010.8
20210618071034 75 13 0.0 12.0 0.00 0.00 0.00 24 1010.8
20210618070535 74 1 2.0 12.0 0.00 0.00 0.00 24 1010.7
20210618070031 73 1 0.0 0.0 0.00 0.00 0.00 25 1010.7
20210618065519 73 352 0.0 0.0 0.00 0.00 0.00 26 1010.6
20210618065018 73 270 0.0 0.0 0.00 0.00 0.00 26 1010.6
20210618064556 73 270 0.0 0.0 0.00 0.00 0.00 26 1010.6
20210618064017 73 270 0.0 0.0 0.00 0.00 0.00 27 1010.7
20210618063543 73 270 0.0 0.0 0.00 0.00 0.00 27 1010.7
20210618063028 73 270 0.0 0.0 0.00 0.00 0.00 27 1010.7
20210618062515 72 270 0.0 0.0 0.00 0.00 0.00 27 1010.7
20210618062017 72 270 0.0 0.0 0.00 0.00 0.00 27 1010.7
20210618061551 72 270 0.0 1.0 0.00 0.00 0.00 27 1010.8
20210618061013 72 357 0.0 1.0 0.00 0.00 0.00 28 1010.8
20210618060512 72 270 0.0 0.0 0.00 0.00 0.00 28 1010.8
20210618060020 72 360 0.0 0.0 0.00 0.00 0.00 28 1010.8
20210618055514 73 354 0.0 0.0 0.00 0.00 0.00 27 1010.8
20210618055010 73 352 0.0 0.0 0.00 0.00 0.00 27 1010.9
20210618054527 74 352 0.0 0.0 0.00 0.00 0.00 26 1010.9
20210618054020 74 270 0.0 0.0 0.00 0.00 0.00 26 1010.9
20210618053509 74 270 0.0 0.0 0.00 0.00 0.00 26 1010.8
20210618053029 74 270 0.0 1.0 0.00 0.00 0.00 26 1010.9
20210618052508 74 270 0.0 2.0 0.00 0.00 0.00 26 1011.0
20210618052012 74 270 0.0 0.0 0.00 0.00 0.00 26 1011.0
20210618051527 74 47 0.0 1.0 0.00 0.00 0.00 26 1011.1
20210618051008 74 48 0.0 1.0 0.00 0.00 0.00 26 1011.1
20210618050508 74 48 0.0 1.0 0.00 0.00 0.00 26 1011.1
20210618050009 74 48 0.0 2.0 0.00 0.00 0.00 27 1011.1
20210618045516 74 48 0.0 2.0 0.00 0.00 0.00 27 1011.2
20210618045008 74 42 0.0 0.0 0.00 0.00 0.00 26 1011.2
20210618044515 75 40 0.0 0.0 0.00 0.00 0.00 26 1011.2
20210618044015 75 71 0.0 1.0 0.00 0.00 0.00 26 1011.2
20210618043507 75 71 0.0 1.0 0.00 0.00 0.00 25 1011.2
20210618043009 76 57 0.0 1.0 0.00 0.00 0.00 25 1011.1
20210618042516 76 270 0.0 1.0 0.00 0.00 0.00 25 1011.0
20210618042014 75 270 0.0 0.0 0.00 0.00 0.00 25 1011.0
20210618041511 75 270 0.0 5.0 0.00 0.00 0.00 26 1011.0
20210618041006 75 270 0.0 5.0 0.00 0.00 0.00 26 1011.0
20210618040505 75 270 0.0 5.0 0.00 0.00 0.00 26 1011.0
20210618040009 75 270 0.0 5.0 0.00 0.00 0.00 26 1011.0
20210618035505 76 270 0.0 11.0 0.00 0.00 0.00 25 1010.9
20210618035015 77 270 3.0 12.0 0.00 0.00 0.00 24 1011.0
20210618034505 77 270 4.0 12.0 0.00 0.00 0.00 23 1011.0
20210618034009 77 270 2.0 10.0 0.00 0.00 0.00 23 1011.0
20210618033515 77 270 0.0 10.0 0.00 0.00 0.00 23 1010.9
20210618033005 77 270 0.0 10.0 0.00 0.00 0.00 23 1010.9
20210618032515 76 270 0.0 10.0 0.00 0.00 0.00 23 1011.0
20210618032003 76 357 0.0 10.0 0.00 0.00 0.00 24 1010.8
20210618031507 77 358 0.0 11.0 0.00 0.00 0.00 24 1010.8
20210618031014 77 270 3.0 11.0 0.00 0.00 0.00 23 1010.7
20210618030502 77 270 2.0 11.0 0.00 0.00 0.00 23 1010.7
20210618030003 77 270 0.0 1.0 0.00 0.00 0.00 23 1010.7
20210618025502 77 270 0.0 0.0 0.00 0.00 0.00 23 1010.7
20210618025003 77 270 0.0 4.0 0.00 0.00 0.00 22 1010.6
20210618024502 77 270 0.0 4.0 0.00 0.00 0.00 22 1010.7
20210618024001 78 270 0.0 2.0 0.00 0.00 0.00 22 1010.7
20210618023501 79 270 0.0 1.0 0.00 0.00 0.00 21 1010.7
20210618022608 79 164 0.0 0.0 0.00 0.00 0.00 21 1010.8
20210618022059 79 144 0.0 0.0 0.00 0.00 0.00 21 1010.8
20210618021651 78 127 0.0 0.0 0.00 0.00 0.00 22 1010.8
20210618021100 79 131 0.0 0.0 0.00 0.00 0.00 22 1010.8
20210618020608 79 158 0.0 0.0 0.00 0.00 0.00 22 1010.7
20210618020236 79 142 0.0 2.0 0.00 0.00 0.00 23 1010.7
20210618015612 78 177 0.0 2.0 0.00 0.00 0.00 23 1010.8
20210618015059 79 270 0.0 0.0 0.00 0.00 0.00 24 1010.7
20210618014750 79 270 0.0 0.0 0.00 0.00 0.00 24 1010.8
20210618014058 79 270 0.0 0.0 0.00 0.00 0.00 24 1010.7
20210618013605 79 139 0.0 10.0 0.00 0.00 0.00 22 1010.7
20210618013207 80 139 2.0 11.0 0.00 0.00 0.00 22 1010.7
20210618012607 80 270 2.0 14.0 0.00 0.00 0.00 22 1010.6
20210618012057 80 164 6.0 13.0 0.00 0.00 0.00 21 1010.6
20210618011707 80 270 1.0 12.0 0.00 0.00 0.00 23 1010.6
20210618011056 80 270 0.0 10.0 0.00 0.00 0.00 23 1010.6
20210618010611 81 270 0.0 0.0 0.00 0.00 0.00 23 1010.6
20210618010206 81 144 0.0 0.0 0.00 0.00 0.00 23 1010.7
20210618005619 81 141 0.0 0.0 0.00 0.00 0.00 21 1010.8
20210618005055 81 139 0.0 13.0 0.00 0.00 0.00 21 1010.8
20210618004707 81 138 2.0 14.0 0.00 0.00 0.00 21 1010.8
20210618004056 82 143 3.0 19.0 0.00 0.00 0.00 20 1010.8
20210618003554 82 167 3.0 19.0 0.00 0.00 0.00 20 1010.7
20210618003137 81 171 4.0 15.0 0.00 0.00 0.00 20 1010.7
20210618002554 82 144 2.0 15.0 0.00 0.00 0.00 20 1010.5
20210618002100 82 139 2.0 19.0 0.00 0.00 0.00 19 1010.5
20210618001740 82 146 6.0 21.0 0.00 0.00 0.00 19 1010.4
20210618001058 82 165 6.0 21.0 0.00 0.00 0.00 19 1010.2
20210618000553 83 140 3.0 17.0 0.00 0.00 0.00 19 1010.1
20210618000105 83 146 4.0 17.0 0.00 0.00 0.00 19 1010.3
20210617235611 84 135 4.0 13.0 0.00 0.01 0.00 18 1010.4
20210617235052 85 270 1.0 13.0 0.00 0.01 0.00 19 1010.5
20210617234745 85 270 1.0 13.0 0.00 0.01 0.00 19 1010.5
20210617234100 85 126 3.0 15.0 0.00 0.01 0.00 18 1010.7
20210617233607 85 270 5.0 15.0 0.00 0.01 0.00 18 1010.6
20210617233222 85 129 2.0 15.0 0.00 0.01 0.00 18 1010.6
20210617232551 85 115 3.0 16.0 0.00 0.01 0.00 17 1010.5
20210617232051 86 120 4.0 17.0 0.00 0.01 0.00 17 1010.5
20210617231649 87 102 2.0 10.0 0.00 0.01 0.00 17 1010.5
20210617231051 87 108 1.0 12.0 0.00 0.01 0.00 17 1010.7
20210617230549 87 121 0.0 12.0 0.00 0.01 0.00 17 1010.6
20210617230136 87 129 0.0 11.0 0.00 0.01 0.00 17 1010.5
20210617225549 87 123 3.0 13.0 0.00 0.01 0.00 17 1010.4
20210617225048 87 123 1.0 10.0 0.00 0.01 0.00 16 1010.3
20210617224110 88 117 0.0 12.0 0.00 0.01 0.00 17 1010.3
20210617223547 87 173 1.0 12.0 0.00 0.01 0.00 17 1010.4
20210617223104 88 131 0.0 7.0 0.00 0.01 0.00 16 1010.4
20210617222600 88 122 1.0 6.0 0.00 0.01 0.00 16 1010.4
20210617222047 88 137 0.0 1.0 0.00 0.01 0.00 18 1010.4
20210617221702 86 125 0.0 8.0 0.00 0.01 0.00 18 1010.5
20210617221045 86 114 0.0 8.0 0.00 0.01 0.00 19 1010.5
20210617220602 86 115 0.0 6.0 0.00 0.01 0.00 18 1010.5
20210617220223 85 112 0.0 1.0 0.00 0.01 0.00 18 1010.5
20210617215549 85 117 0.0 1.0 0.00 0.01 0.00 21 1010.5
20210617215045 85 105 0.0 0.0 0.00 0.01 0.00 18 1010.6
20210617214615 85 108 0.0 4.0 0.00 0.01 0.00 19 1010.7
20210617214046 85 98 0.0 4.0 0.00 0.01 0.00 19 1010.8
20210617213542 85 110 0.0 1.0 0.00 0.01 0.00 18 1010.9
20210617213135 86 113 0.0 1.0 0.00 0.01 0.00 18 1010.9
20210617212556 86 107 0.0 7.0 0.00 0.01 0.00 18 1011.0
20210617212052 86 110 1.0 7.0 0.00 0.01 0.00 18 1011.0
20210617211554 86 137 0.0 4.0 0.00 0.01 0.00 16 1011.0
20210617211042 87 114 0.0 4.0 0.00 0.01 0.00 18 1011.1
20210617210538 88 113 0.0 6.0 0.00 0.01 0.00 16 1011.2
20210617210146 88 108 1.0 6.0 0.00 0.01 0.00 17 1011.2
20210617205551 88 270 0.0 0.0 0.00 0.01 0.00 18 1011.2
20210617205036 87 142 0.0 0.0 0.00 0.01 0.00 18 1011.2
20210617204538 87 103 0.0 6.0 0.00 0.01 0.00 16 1011.2
20210617204036 87 104 0.0 6.0 0.00 0.01 0.00 18 1011.3
20210617203539 87 110 0.0 9.0 0.00 0.01 0.00 18 1011.3
20210617203107 86 106 2.0 11.0 0.00 0.01 0.00 18 1011.5
20210617202538 86 158 2.0 12.0 0.00 0.01 0.00 17 1011.5
20210617202045 86 102 0.0 7.0 0.00 0.01 0.00 18 1011.6
20210617201609 86 117 1.0 6.0 0.00 0.01 0.00 18 1011.8
20210617201035 86 125 0.0 0.0 0.00 0.01 0.00 19 1011.9
20210617200534 86 100 0.0 9.0 0.00 0.01 0.00 17 1011.9
20210617200056 86 124 0.0 9.0 0.00 0.01 0.00 19 1012.2
20210617195546 86 137 0.0 5.0 0.00 0.01 0.00 19 1012.2
20210617195031 87 108 0.0 5.0 0.00 0.01 0.00 18 1012.1
20210617194558 88 75 0.0 3.0 0.00 0.01 0.00 16 1012.1
20210617194103 88 28 0.0 8.0 0.00 0.01 0.00 16 1012.2
20210617193531 88 123 1.0 8.0 0.00 0.01 0.00 13 1012.1
20210617193112 88 15 0.0 15.0 0.00 0.01 0.00 12 1012.1
20210617192540 89 352 1.0 15.0 0.00 0.01 0.00 13 1012.2
20210617192040 90 329 2.0 12.0 0.00 0.01 0.00 13 1012.1
20210617191537 90 270 1.0 12.0 0.00 0.01 0.00 12 1012.3
20210617191037 89 353 0.0 15.0 0.00 0.01 0.00 13 1012.5
20210617190527 89 270 5.0 15.0 0.00 0.01 0.00 13 1012.6
20210617190041 89 356 6.0 14.0 0.00 0.01 0.00 14 1012.6
20210617185525 89 270 2.0 15.0 0.00 0.01 0.00 13 1012.7
20210617185037 89 270 6.0 18.0 0.00 0.01 0.00 14 1012.9
20210617184600 89 270 6.0 18.0 0.00 0.01 0.00 13 1012.9
20210617184030 89 2 3.0 16.0 0.00 0.01 0.00 12 1013.0
20210617183534 89 270 4.0 16.0 0.00 0.01 0.00 14 1013.1
20210617183031 89 270 3.0 16.0 0.00 0.01 0.00 14 1013.1
20210617182521 89 358 3.0 16.0 0.00 0.01 0.00 14 1013.1
20210617182020 90 270 7.0 17.0 0.00 0.01 0.00 14 1013.2
20210617181522 88 270 3.0 18.0 0.00 0.01 0.00 14 1013.2
20210617181037 89 163 5.0 15.0 0.00 0.01 0.00 12 1013.3
20210617180519 89 270 2.0 15.0 0.00 0.01 0.00 15 1013.3
20210617180055 89 270 3.0 15.0 0.00 0.01 0.00 12 1013.4
20210617175527 89 146 0.0 12.0 0.00 0.02 0.00 12 1013.4
20210617175035 88 270 0.0 15.0 0.00 0.02 0.00 15 1013.5
20210617174535 88 144 1.0 15.0 0.00 0.02 0.00 12 1013.5
20210617174015 88 140 1.0 13.0 0.00 0.02 0.00 13 1013.5
20210617173513 88 270 0.0 11.0 0.00 0.02 0.00 16 1013.5
20210617173057 87 270 4.0 14.0 0.00 0.02 0.00 15 1013.6
20210617172534 86 270 2.0 12.0 0.00 0.02 0.00 17 1013.7
20210617172013 86 148 2.0 17.0 0.00 0.02 0.00 14 1013.6
20210617171016 87 138 4.0 17.0 0.00 0.02 0.00 13 1013.6
20210617170511 87 159 6.0 17.0 0.00 0.02 0.00 12 1013.5
20210617170110 88 139 4.0 15.0 0.00 0.02 0.00 13 1013.6
20210617165509 88 270 3.0 12.0 0.00 0.02 0.00 12 1013.7
20210617165007 87 270 1.0 9.0 0.00 0.02 0.00 16 1013.7
20210617164514 86 270 2.0 12.0 0.00 0.02 0.00 13 1013.7
20210617164007 87 270 2.0 14.0 0.00 0.02 0.00 15 1013.8
20210617163505 87 156 3.0 14.0 0.00 0.02 0.00 14 1013.7
20210617163006 87 270 2.0 12.0 0.00 0.02 0.00 13 1013.7
20210617162503 87 270 1.0 17.0 0.00 0.02 0.00 15 1013.7
20210617162006 87 270 6.0 17.0 0.00 0.02 0.00 15 1013.7
20210617161133 87 176 1.0 11.0 0.00 0.02 0.00 12 1013.7
20210617160611 87 270 0.0 11.0 0.00 0.02 0.00 14 1013.7
20210617160123 86 142 0.0 1.0 0.00 0.02 0.00 13 1013.8
20210617155541 86 132 0.0 1.0 0.00 0.02 0.00 13 1013.7
20210617155038 86 270 0.0 1.0 0.00 0.02 0.00 14 1013.7
20210617154544 86 270 0.0 1.0 0.00 0.02 0.00 15 1013.7
20210617154040 86 270 0.0 8.0 0.00 0.02 0.00 14 1013.8
20210617153538 85 270 0.0 8.0 0.00 0.02 0.00 18 1013.8
20210617153139 85 270 0.0 6.0 0.00 0.02 0.00 15 1013.8
20210617152548 86 270 0.0 3.0 0.00 0.02 0.00 16 1013.8
20210617152039 85 102 0.0 1.0 0.00 0.02 0.00 16 1014.0
20210617151612 85 96 0.0 1.0 0.00 0.02 0.00 20 1014.0
20210617151043 84 95 0.0 0.0 0.00 0.02 0.00 17 1014.0
20210617150528 83 165 0.0 0.0 0.00 0.02 0.00 19 1014.0
20210617150124 82 166 0.0 0.0 0.00 0.02 0.00 19 1014.0
20210617145524 82 152 0.0 0.0 0.00 0.02 0.00 21 1014.0
20210617145023 81 148 0.0 0.0 0.00 0.02 0.00 21 1014.0
20210617144549 81 153 0.0 0.0 0.00 0.02 0.00 22 1014.0
20210617144031 80 270 0.0 0.0 0.00 0.02 0.00 22 1014.0
20210617143535 79 148 0.0 1.0 0.00 0.02 0.00 22 1014.0
20210617143031 79 270 0.0 5.0 0.00 0.02 0.00 22 1013.9
20210617142515 78 151 0.0 6.0 0.00 0.02 0.00 23 1013.8
20210617142019 77 150 0.0 6.0 0.00 0.02 0.00 24 1013.8
20210617141517 77 150 0.0 4.0 0.00 0.02 0.00 24 1013.8
20210617141041 76 148 0.0 7.0 0.00 0.02 0.00 24 1013.8
20210617140530 75 270 0.0 8.0 0.00 0.02 0.00 24 1013.7
20210617140021 75 150 1.0 10.0 0.00 0.02 0.00 23 1013.6
20210617135516 75 146 0.0 10.0 0.00 0.02 0.00 23 1013.7
20210617135007 75 147 0.0 10.0 0.00 0.02 0.00 22 1013.7
20210617134512 75 141 0.0 8.0 0.00 0.02 0.00 22 1013.7
20210617134010 76 148 0.0 8.0 0.00 0.02 0.00 22 1013.6
20210617133505 76 148 0.0 1.0 0.00 0.02 0.00 22 1013.6
20210617133041 76 154 0.0 10.0 0.00 0.02 0.00 21 1013.6
20210617132510 76 152 1.0 10.0 0.00 0.02 0.00 21 1013.6
20210617132007 76 154 0.0 9.0 0.00 0.02 0.00 21 1013.6
20210617131505 75 142 0.0 9.0 0.00 0.02 0.00 21 1013.5
20210617131009 75 148 0.0 10.0 0.00 0.02 0.00 21 1013.5
20210617130505 75 150 1.0 11.0 0.00 0.02 0.00 22 1013.5
20210617130004 75 270 1.0 11.0 0.00 0.02 0.00 22 1013.5
20210617125503 75 150 3.0 11.0 0.00 0.02 0.00 21 1013.4
20210617125002 75 146 2.0 10.0 0.00 0.02 0.00 22 1013.4
20210617124516 74 148 2.0 13.0 0.00 0.02 0.00 21 1013.5
20210617124113 74 164 2.0 13.0 0.00 0.02 0.00 21 1013.4
20210617123558 74 140 3.0 12.0 0.00 0.02 0.00 21 1013.4
20210617123248 74 131 2.0 10.0 0.00 0.02 0.00 21 1013.3
20210617122556 74 150 0.0 10.0 0.00 0.02 0.00 21 1013.2
20210617122113 75 270 0.0 8.0 0.00 0.02 0.00 20 1013.3
20210617121636 75 270 0.0 14.0 0.00 0.02 0.00 19 1013.3
20210617121145 76 359 4.0 14.0 0.00 0.02 0.00 19 1013.3
20210617120552 76 270 3.0 13.0 0.00 0.02 0.00 18 1013.3
20210617120209 75 270 3.0 16.0 0.00 0.02 0.00 18 1013.2
20210617115548 74 270 2.0 16.0 0.00 0.02 0.00 19 1013.2
20210617115058 73 270 2.0 14.0 0.00 0.02 0.00 20 1013.1
20210617114634 72 270 0.0 1.0 0.00 0.02 0.00 21 1013.1
20210617114047 72 270 0.0 10.0 0.00 0.02 0.00 21 1013.1
20210617113546 73 154 0.0 10.0 0.00 0.02 0.00 20 1013.1
20210617113105 72 270 1.0 10.0 0.00 0.02 0.00 21 1013.0
20210617112547 72 270 0.0 10.0 0.00 0.02 0.00 21 1013.0
20210617112045 72 146 0.0 1.0 0.00 0.02 0.00 21 1012.9
20210617111603 73 139 0.0 0.0 0.00 0.02 0.00 20 1013.0
20210617111045 73 129 0.0 4.0 0.00 0.02 0.00 20 1012.9
20210617110620 74 129 0.0 4.0 0.00 0.02 0.00 20 1012.9
20210617110052 74 138 0.0 4.0 0.00 0.02 0.00 19 1012.9
20210617105604 74 161 0.0 1.0 0.00 0.02 0.00 19 1012.9
20210617105045 74 142 0.0 9.0 0.00 0.02 0.00 19 1012.9
20210617104649 74 146 3.0 9.0 0.00 0.02 0.00 19 1012.8
20210617104045 73 152 0.0 5.0 0.00 0.02 0.00 20 1012.9
20210617103600 73 352 0.0 5.0 0.00 0.02 0.00 20 1012.9
20210617102602 71 270 0.0 0.0 0.00 0.02 0.00 21 1012.9
20210617102042 71 357 0.0 0.0 0.00 0.02 0.00 22 1012.8
20210617101610 71 357 0.0 0.0 0.00 0.02 0.00 22 1012.8
20210617101042 70 270 0.0 0.0 0.00 0.02 0.00 23 1012.8
20210617100542 70 270 0.0 0.0 0.00 0.02 0.00 24 1012.8
20210617100123 70 270 0.0 0.0 0.00 0.02 0.00 24 1012.8
20210617095542 69 270 0.0 0.0 0.00 0.02 0.00 25 1012.8
20210617095125 69 270 0.0 0.0 0.00 0.02 0.00 25 1012.9
20210617094629 69 270 0.0 0.0 0.00 0.02 0.00 26 1012.9
20210617094044 69 270 0.0 0.0 0.00 0.02 0.00 26 1013.0
20210617093539 69 358 0.0 0.0 0.00 0.02 0.00 27 1013.0
20210617093117 68 358 0.0 0.0 0.00 0.02 0.00 28 1013.0
20210617092600 67 358 0.0 0.0 0.00 0.02 0.00 28 1013.1
20210617092039 67 358 0.0 0.0 0.00 0.02 0.00 27 1013.2
20210617091617 67 358 0.0 0.0 0.00 0.02 0.00 27 1013.2
20210617091035 68 270 0.0 0.0 0.00 0.02 0.00 28 1013.2
20210617090536 68 270 0.0 0.0 0.00 0.02 0.00 29 1013.3
20210617090054 68 6 0.0 0.0 0.00 0.02 0.00 31 1013.4
20210617085536 68 44 0.0 0.0 0.00 0.02 0.00 31 1013.4
20210617085033 68 44 0.0 3.0 0.00 0.02 0.00 31 1013.5
20210617084627 68 38 0.0 3.0 0.00 0.02 0.00 31 1013.5
20210617084030 70 54 0.0 2.0 0.00 0.02 0.00 30 1013.5
20210617083537 72 63 0.0 9.0 0.00 0.02 0.00 28 1013.4
20210617083105 75 54 2.0 9.0 0.00 0.02 0.00 25 1013.2